Regional Weather Roundup
Issued by NWS

Home | Current Version | Previous Version | Text Only | Print | Product List | Glossary Off
Versions: 1 2 3 4 5 6 7 8 9 10 11 12 13 14 15 16 17 18 19 20 21 22 23 24 25 26 27 28 29 30 31 32 33 34 35 36 37 38 39 40 41 42 43 44 45 46 47 48 49 50

000
ASUS43 KFSD 281102
RWRSD

WEATHER ROUNDUP FOR SOUTH DAKOTA
NATIONAL WEATHER SERVICE SIOUX FALLS SD
600 AM CDT SUN AUG 28 2016

NOTE: "FAIR" INDICATES FEW OR NO CLOUDS BELOW 12,000 FEET WITH NO
SIGNIFICANT WEATHER AND/OR OBSTRUCTIONS TO VISIBILITY.


SDZ001>005-009-010-012>017-281200-
NORTHWEST AND NORTH CENTRAL SOUTH DAKOTA

CITY           SKY/WX    TMP DP  RH WIND       PRES   REMARKS
BUFFALO          N/A     58  54  86 SW5       29.84S
FAITH            N/A     60  56  86 S17       29.88S
MOBRIDGE       CLEAR     67  60  78 SE13      29.87S
$$

SDZ012>016-024>037-041>051-057-063-072>074-281200-
SOUTHWEST AND SOUTH CENTRAL SOUTH DAKOTA

CITY           SKY/WX    TMP DP  RH WIND       PRES   REMARKS
RAPID CTY ARPT CLEAR     57  50  77 SE6       29.93R
PIERRE         CLEAR     65  62  90 SE7       29.90R
CUSTER         CLEAR     55  38  52 NW7       30.08S
ELLSWORTH AFB  CLEAR     60  51  74 S7        29.92
PHILIP         CLEAR     66  61  84 CALM      29.90S
PINE RIDGE     CLEAR     64  61  90 S14       29.97S
WINNER         FAIR      70  65  84 S15       29.96S
$$

SDZ004>011-016>023-039-040-281200-
NORTHEAST SOUTH DAKOTA

CITY           SKY/WX    TMP DP  RH WIND       PRES   REMARKS
ABERDEEN       CLEAR     66  63  90 SE12      29.96R
WATERTOWN      CLOUDY    69  61  75 SE12G18   30.04S
BROOKINGS      CLEAR     64  62  93 SE10      30.05R
$$

SDZ017-020-022-023-036>040-048>070-281200-
SOUTHEAST SOUTH DAKOTA

CITY           SKY/WX    TMP DP  RH WIND       PRES   REMARKS
SIOUX FALLS    PTCLDY    64  63  96 NE6       30.06R
HURON          CLEAR     66  64  93 SE12      29.97R
CHAMBERLAIN    CLEAR     72  67  85 S10       29.96R
MITCHELL       CLEAR     66  64  93 SE8       30.00R
YANKTON        CLEAR     66  63  88 SE8       30.02R
$$

ABBREVIATIONS USED IN REMARKS
   TC - TEMPERATURE IN CELSIUS
  WCI - WIND CHILL INDEX
   HX - HEAT INDEX
  VSB - VISIBILITY





USA.gov is the U.S. government's official web portal to all federal, state and local government web resources and services.